[Iaude] MPEC T86: 2016 TZ17 [a=2.73,e=0.62,i=4.0,H=21.3,PHA]

mpec at si.edu mpec at si.edu
Sun Oct 9 07:39:50 EDT 2016


M.P.E.C. 2016-T86                                Issued 2016 Oct.  9, 11:36 UT
 
     The Minor Planet Electronic Circulars contain information on unusual
         minor planets and routine data on comets.  They are published
    on behalf of Division F of the International Astronomical Union by the
          Minor Planet Center, Smithsonian Astrophysical Observatory,
                          Cambridge, MA 02138, U.S.A.

             Prepared using the Tamkin Foundation Computer Network

                              MPC at CFA.HARVARD.EDU
            URL http://www.minorplanetcenter.net/    ISSN 1523-6714


                                   2016 TZ17
 
Observations:
     K16T17Z* C2016 10 07.14246 20 34 45.26 +09 11 31.3          18.8 VqET086G96
     K16T17Z  C2016 10 07.14675 20 34 47.97 +09 11 47.6          19.0 VqET086G96
     K16T17Z  C2016 10 07.15103 20 34 50.55 +09 12 03.4          19.0 VqET086G96
     K16T17Z  C2016 10 07.27365 20 36 05.51 +09 19 33.6          18.9 VqET086I52
     K16T17Z  C2016 10 07.27550 20 36 06.63 +09 19 40.6          18.9 VqET086I52
     K16T17Z  C2016 10 07.27734 20 36 07.83 +09 19 47.9                qET086G96
     K16T17Z  C2016 10 07.27873 20 36 08.64 +09 19 52.4          19.0 VqET086I52
     K16T17Z  C2016 10 07.27908 20 36 08.86 +09 19 53.8          19.1 VqET086G96
     K16T17Z  C2016 10 07.28041 20 36 09.67 +09 19 58.6          19.1 VqET086G96
     K16T17Z  C2016 10 07.28137 20 36 10.32 +09 20 02.0          18.9 VqET086I52
     K16T17Z  C2016 10 07.28203 20 36 10.67 +09 20 04.3          19.1 VqET086G96
     K16T17Z KC2016 10 07.80331 20 41 41.67 +09 51 47.0                qET086587
     K16T17Z KC2016 10 07.81580 20 41 49.30 +09 52 32.0                qET086587
     K16T17Z KC2016 10 07.82296 20 41 53.67 +09 52 58.1                qET086587
     K16T17Z KC2016 10 07.83011 20 41 58.06 +09 53 23.7          19.1 RqET086587
     K16T17Z KC2016 10 07.87231 20 42 24.45 +09 55 58.0          19.5 VqET086958
     K16T17Z KC2016 10 07.88086 20 42 29.64 +09 56 29.6          19.6 VqET086958
     K16T17Z KC2016 10 07.88943 20 42 34.90 +09 57 00.2          19.4 VqET086958
     K16T17Z KC2016 10 07.91945 20 42 52.77 +09 58 47.0          19.5 RqET086104
     K16T17Z KC2016 10 07.92496 20 42 56.14 +09 59 06.1          19.4 RqET086104
     K16T17Z KC2016 10 07.93283 20 43 01.06 +09 59 34.8          18.8 RqET086104
     K16T17Z  C2016 10 08.09628 20 44 46.88 +10 09 38.5          19.1 VqET086I52
     K16T17Z  C2016 10 08.09737 20 44 47.61 +10 09 42.4          19.1 VqET086I52
     K16T17Z  C2016 10 08.09846 20 44 48.27 +10 09 46.3          19.1 VqET086I52
     K16T17Z KC2016 10 08.09928 20 44 47.90 +10 09 43.2          19.1 RqET086H36
     K16T17Z  C2016 10 08.09955 20 44 49.01 +10 09 50.3          18.8 VqET086I52
     K16T17Z KC2016 10 08.10703 20 44 52.58 +10 10 11.1          18.8 RqET086H36
     K16T17Z KC2016 10 08.11090 20 44 55.00 +10 10 24.9          18.7 RqET086H36
     K16T17Z  C2016 10 08.11128 20 44 56.08 +10 10 33.8          18.9 RoET086926
     K16T17Z  C2016 10 08.11297 20 44 57.09 +10 10 39.8          19.0 RoET086926
     K16T17Z  C2016 10 08.11466 20 44 58.20 +10 10 46.3          18.9 RoET086926
     K16T17Z KC2016 10 08.11865 20 44 59.71 +10 10 52.7          19.0 RqET086H36
     K16T17Z KC2016 10 08.13124020 45 06.96 +10 11 36.1          19.3 VuET086H21
     K16T17Z KC2016 10 08.13611520 45 09.95 +10 11 54.0          19.3 VuET086H21
     K16T17Z KC2016 10 08.13982020 45 12.20 +10 12 07.3          19.2 VuET086H21
     K16T17Z  C2016 10 09.11384 20 55 26.10 +11 09 29.0          18.9 RoET086926
     K16T17Z  C2016 10 09.11553 20 55 27.11 +11 09 34.6          19.0 RoET086926
     K16T17Z  C2016 10 09.11722 20 55 28.15 +11 09 40.6          18.8 RoET086926
     K16T17Z KC2016 10 09.14012 20 55 40.61 +11 10 54.2          19.0 RqET086850
     K16T17Z KC2016 10 09.15198 20 55 47.83 +11 11 34.9          19.1 RqET086850
     K16T17Z KC2016 10 09.16387 20 55 55.06 +11 12 15.8          19.0 RqET086850
     K16T17Z KC2016 10 09.17472 20 56 01.67 +11 12 52.7          19.1 RqET086850
     K16T17Z HC2016 10 09.18049 20 56 06.51 +11 13 17.6                oET086691
     K16T17Z  C2016 10 09.18588 20 56 09.69 +11 13 35.5          19.0 VqET086I52
     K16T17Z KC2016 10 09.18946 20 56 10.67 +11 13 42.6          19.2 RqET086850
     K16T17Z  C2016 10 09.19139 20 56 13.07 +11 13 54.4          19.9 VqET086I52
     K16T17Z HC2016 10 09.19229 20 56 13.61 +11 13 58.1                oET086691
     K16T17Z KC2016 10 09.19950 20 56 16.86 +11 14 16.9          19.2 RqET086850
     K16T17Z  C2016 10 09.20222 20 56 19.59 +11 14 31.1          18.8 VqET086I52
     K16T17Z HC2016 10 09.20412 20 56 20.81 +11 14 38.1                oET086691
 
Observer details:
104 San Marcello Pistoiese.  Observers P. Bacci, M. Maestripieri.  Measurers
    P. Bacci, L. Tesi, G. Fagioli.  0.60-m f/4 reflector + CCD.
587 Sormano.  Observers E. Colzani, I. Proserpio, A. Testa.  Measurer A. Testa.
    0.5-m f/6.8 reflector + CCD.
691 Steward Observatory, Kitt Peak.  Observer R. S. McMillan.  0.9-m f/3
    reflector + CCD.
850 Cordell-Lorenz Observatory, Sewanee.  Observer D. T. Durig.  0.3-m f/9.4
    Schmidt-Cassegrain + CCD.
926 Tenagra II Observatory.  Observers M. Schwartz, P. R. Holvorcem.  Measurer
    M. Schwartz.  0.81-m f/7 Ritchey-Chretien + CCD.
958 Observatoire de Dax.  Observers P. Dupouy, J. B. de Vanssay.  Measurer
    P. Dupouy.  0.43-m f/2.7 reflector + CCD.
G96 Mt. Lemmon Survey.  Observer G. J. Leonard.  Measurers E. J. Christensen,
    D. C. Fuls, A. R. Gibbs, A. D. Grauer, J. A. Johnson, R. A. Kowalski,
    S. M. Larson, G. J. Leonard, R. G. Matheny, R. L. Seaman, F. C. Shelly.
    1.5-m reflector + 10K CCD.
H21 Astronomical Research Observatory, Westfield.  Observer R. Holmes.
    Measurers S. Foglia, L. Buzzi, T. Linder, R. Holmes.  0.76-m f/3.0
    astrograph + CCD.
H36 Sandlot Observatory, Scranton.  Observer G. Hug.  0.56-m reflector + CCD.
I52 Steward Observatory, Mt. Lemmon Station.  Observers J. A. Johnson,
    D. C. Fuls.  Measurers E. J. Christensen, D. C. Fuls, A. R. Gibbs,
    A. D. Grauer, J. A. Johnson, R. A. Kowalski, S. M. Larson, G. J. Leonard,
    R. G. Matheny, R. L. Seaman, F. C. Shelly.  1.0-m reflector + CCD.
 
Orbital elements:
2016 TZ17                                           PHA, Earth MOID = 0.0318 AU
Epoch 2016 July 31.0 TT = JDT 2457600.5                 MPC
M 350.16707              (2000.0)            P               Q
n   0.21905100     Peri.   31.83172     +0.94363773     +0.32649179
a   2.7254563      Node   309.01436     -0.31644570     +0.84186233
e   0.6244322      Incl.    4.00906     -0.09700490     +0.42973356
P   4.50           H   21.3           G   0.15           U   5
Residuals in seconds of arc
161007 G96  1.2-  0.1-    161007 958  1.0+  0.2-    161008 H21  0.3-  0.0
161007 G96  0.4+  0.3+    161007 104  0.4-  0.0     161009 926  0.1-  0.4+
161007 G96  0.1+  0.3+    161007 104  0.8-  0.7-    161009 926  0.3-  0.2+
161007 I52  0.0   0.3-    161007 104  0.0   0.2-    161009 926  0.0   0.3+
161007 I52  0.3-  0.0     161008 I52  1.3-  0.1+    161009 850  0.1+  0.3-
161007 G96  0.6+  0.5+    161008 I52  0.3-  0.0     161009 850  0.2+  0.2-
161007 I52  0.1-  0.0     161008 I52  0.4-  0.0     161009 850  0.1-  0.2+
161007 G96  0.0   0.1+    161008 H36  0.1+  0.0     161009 850  0.2-  0.1+
161007 G96  0.2-  0.0     161008 I52  0.8+  0.1+    161009 691  0.5+  0.0
161007 I52  0.7+  0.1-    161008 H36  0.5-  0.1+    161009 I52  0.1-  0.0
161007 G96  0.2-  0.2-    161008 H36  0.4+  0.0     161009 850  0.4-  0.1-
161007 587  0.1+  0.3+    161008 926  0.2-  0.3+    161009 I52  0.4+  0.1+
161007 587  0.0   0.0     161008 926  0.4-  0.2+    161009 691  0.2-  0.2+
161007 587  0.2-  0.2+    161008 926  0.8+  0.7+    161009 850  0.2+  0.1+
161007 587  0.0   0.1-    161008 H36  0.2+  0.0     161009 I52  0.3-  0.2-
161007 958  1.4+  0.7-    161008 H21  0.2-  0.6-    161009 691  0.1+  0.2-
161007 958  0.8+  0.1+    161008 H21  0.1-  0.1-

Ephemeris:
2016 TZ17                a,e,i = 2.73, 0.62, 4                   q = 1.0236
Date    TT    R. A. (2000) Decl.     Delta      r     Elong.  Phase     V
2016 09 09    17 01 29.9 -14 06 36   0.2094  1.0257    89.2    79.1    20.7
...
2016 09 24    18 30 30.6 -04 28 07   0.1560  1.0326    96.5    74.8    20.0
...
2016 10 02    19 41 54.6 +03 39 13   0.1417  1.0519   107.4    65.2    19.5
...
2016 10 08    20 43 45.2 +10 04 12   0.1426  1.0730   117.8    55.5    19.2
2016 10 09    20 54 13.9 +11 03 13   0.1439  1.0770   119.5    53.8    19.2
2016 10 10    21 04 39.2 +11 59 46   0.1455  1.0812   121.2    52.2    19.2
...
2016 10 16    22 04 03.0 +16 35 57   0.1617  1.1090   130.6    43.0    19.2
...
2016 10 24    23 08 57.8 +19 55 39   0.1984  1.1526   139.4    34.1    19.5
...
2016 11 08    00 27 14.3 +21 19 57   0.3016  1.2504   145.2    26.9    20.4

A. U. Tomatic                (C) Copyright 2016 MPC           M.P.E.C. 2016-T86




More information about the Iaude mailing list